Home   Weather   Martigny   Past weeks

Flag for Switzerland Past Weather in Martigny, Valais, Switzerland — Yesterday and Last 2 Weeks

Now
39 °F

Chilly.


Feels Like: 39 °F
Forecast: 40 / 50 °F
Wind: 1 mph from Southeast

Location: Sion

Current Time: Apr 30, 2017 at 3:49:47 am

Latest Report: Apr 30, 2017 at 3:00 am


Visibility: N/A

Pressure: 30.02 "Hg

Humidity: 83%

Dew Point: 34 °F

Location of MartignyLocation

Past Weather in Martigny — Graph

°F

Martigny Temperature Yesterday

Maximum temperature yesterday: 63 °F (at 5:00 pm)
Minimum temperature yesterday: 34 °F (at 5:00 am)
Average temperature yesterday: 47 °F

High & Low Weather Summary for the Past Weeks

 TemperatureHumidityPressure
High74 °F (Apr 24, 6:00 pm)94% (Apr 26, 6:00 am)30.51 "Hg (Apr 26, 6:00 am)
Low30 °F (Apr 20, 7:00 am)14% (Apr 29, 5:00 pm)29.69 "Hg (Apr 25, 1:00 pm)
Average50 °F54%30.07 "Hg
* Reported Apr 15 2:00 am — Apr 30 2:00 am, Martigny, Weather by CustomWeather, © 2017

Note: Actual official high and low records may vary slightly from our data, if they occured in-between our weather recording intervals... More about our weather records

Advertising

Martigny Weather History for the Previous 24 Hours

Scroll right to see more
 ConditionsComfort  
Time TempWeatherWind HumidityBarometerVisibility
2:00 am
Sun, Apr 30
42 °FQuite cool.1 mph69%30.01 "HgN/A
1:00 am44 °FQuite cool.1 mph64%30.00 "HgN/A
12:00 am44 °FQuite cool.1 mph69%30.00 "HgN/A
11:00 pm
Sat, Apr 29
45 °FClear.3 mph65%29.99 "Hg16 mi
10:00 pm50 °FCool.2 mph50%29.96 "HgN/A
9:00 pm51 °FCool.3 mph51%29.94 "HgN/A
8:00 pm55 °FSunny.9 mph43%29.91 "Hg16 mi
7:00 pm61 °FRefreshingly cool.15 mph32%29.88 "HgN/A
6:00 pm62 °FRefreshingly cool.12 mph25%29.88 "HgN/A
5:00 pm63 °FPassing clouds.6 mph14%29.89 "Hg19 mi
4:00 pm63 °FMild.3 mph19%29.91 "HgN/A
3:00 pm60 °FRefreshingly cool.2 mph23%29.94 "HgN/A
2:00 pm58 °FPassing clouds.2 mph33%29.98 "Hg19 mi
1:00 pm56 °FRefreshingly cool.3 mph33%30.01 "HgN/A
12:00 pm52 °FCool.2 mph33%30.05 "HgN/A
11:00 am48 °FScattered clouds.5 mph44%30.09 "Hg16 mi
10:00 am44 °FQuite cool.2 mph49%30.12 "HgN/A
9:00 am40 °FQuite cool.3 mph55%30.16 "HgN/A
8:00 am37 °FScattered clouds.3 mph67%30.17 "Hg16 mi
7:00 am34 °FChilly.3 mph76%30.18 "HgN/A
6:00 am34 °FChilly.3 mph76%30.18 "HgN/A
5:00 am34 °FClear.1 mph83%30.18 "Hg16 mi
4:00 am35 °FChilly.1 mph87%30.18 "HgN/A
3:00 am36 °FChilly.2 mph81%30.17 "HgN/A
Weather by CustomWeather, © 2017

See weather overviewHow to use our weather pages